Location: Newark
(23.3970°S, 47.6010°W)
Time: 10:19:10
(UTC+00:00)

deb Explorer IX - Pass Details

Date: 20 February 2020
Orbit: 547 x 1101 km, 38.8° (Epoch: 28 March)

Event Time Altitude Azimuth Distance (km) Brightness Sun altitude
Rises 22:10:30 0° 359° (N) 3,364 ? -6.1°
Reaches altitude 10° 22:15:13 10° 33° (NNE) 2,595 ? -7.1°
Maximum altitude 22:16:51 11° 48° (NE) 2,572 ? -7.5°
Drops below altitude 10° 22:18:33 10° 64° (ENE) 2,700 ? -7.9°
Enters shadow 22:19:11 - 69° (ENE) 2,783 ? -8.0°
Sets 22:23:48 0° 96° (E) 3,788 - -9.0°
